Weather History for Perth, WE

Change the Weather History Date:

Tuesday, December 25, 2012

  Actual Average Record
Temperature  
Mean Temperature 83 °F -  
Max Temperature 102 °F 88 °F 105 °F (2007)
Min Temperature 64 °F 62 °F 39 °F (2004)
Cooling Degree Days 18    
Growing Degree Days 33 (Base 50)    
Moisture  
Dew Point 52 °F    
Average Humidity 33    
Maximum Humidity 77    
Minimum Humidity 11    
Precipitation  
Precipitation 0.00 in 0.01 in - ()
Sea Level Pressure  
Sea Level Pressure 29.88 in    
Wind  
Wind Speed 12 mph ()    
Max Wind Speed 22 mph    
Max Gust Speed 32 mph    
Visibility 19.0 miles    
Events      
Averages and records for this station are not official NWS values.
T = Trace of Precipitation, MM = Missing Value Source: Averaged Metar Reports

Daily Weather History Graph

Daily Weather History Graph

Search for Another Location

Airport:

Trip Planner

Search our weather history database for the weather conditions in past years. The results will help you decide how hot, cold, wet, or windy it might be!

Date:

Astronomy

Dec. 25, 2012 Rise Set
Actual Time 5:09 AM AWST 7:23 PM AWST
Civil Twilight 4:40 AM AWST 7:51 PM AWST
Nautical Twilight 4:06 AM AWST 8:26 PM AWST
Astronomical Twilight 3:28 AM AWST 9:03 PM AWST
Moon 4:46 PM AWST (12/25) 2:37 AM AWST (12/25)
Length of Visible Light 15h 10m
Length of Day
14h 14m
Waxing Gibbous, 91% of the Moon is Illuminated
Dec 25
Waxing Gibbous
Dec 28
Full
Jan 5
Last Quarter
Jan 12
New
Jan 19
First Quarter

Hourly Weather History & Observations

Time (AWST) Temp. Heat Index Dew Point Humidity Pressure Visibility Wind Dir Wind Speed Gust Speed Precip Events Conditions
12:00 AM 69 °F - 59 °F 61% 29.95 in 19 mi SSW 8.1 mph - -   Partly Cloudy
12:00 AM 68.0 °F - 59.0 °F 73% 29.95 in - SSW 8.1 mph - N/A   Clear
12:30 AM 64.4 °F - 57.2 °F 77% 29.92 in - SW 3.5 mph - N/A   Clear
1:00 AM 68.0 °F - 55.4 °F 64% 29.92 in - NNE 3.5 mph - N/A   Clear
1:29 AM 77.0 °F - 48.2 °F 36% 29.92 in - East 12.7 mph - N/A   Clear
1:30 AM 77.0 °F - 48.2 °F 36% 29.92 in - East 11.5 mph - N/A   Clear
2:00 AM 77 °F - 49 °F 26% 29.91 in - East 11.5 mph - -  
2:00 AM 77.0 °F - 48.2 °F 36% 29.92 in - East 11.5 mph - N/A   Clear
2:30 AM 77.0 °F - 50.0 °F 39% 29.92 in - East 12.7 mph - N/A   Clear
3:00 AM 76 °F - 49 °F 28% 29.91 in 19 mi East 19.6 mph - -   Partly Cloudy
3:00 AM 75.2 °F - 50.0 °F 41% 29.92 in - East 19.6 mph - N/A   Clear
3:07 AM 75.2 °F - 48.2 °F 38% 29.89 in - East 20.7 mph 32.2 mph N/A   Clear
3:30 AM 75.2 °F - 50.0 °F 41% 29.89 in - East 19.6 mph - N/A   Clear
4:00 AM 73.4 °F - 50.0 °F 44% 29.89 in - East 21.9 mph - N/A   Clear
4:30 AM 73.4 °F - 50.0 °F 44% 29.92 in - East 19.6 mph - N/A   Clear
4:40 AM 73.4 °F - 50.0 °F 44% 29.92 in - ENE 18.4 mph 29.9 mph N/A   Clear
5:00 AM 73 °F - 49 °F 32% 29.92 in - East 17.3 mph - -  
5:00 AM 73.4 °F - 50.0 °F 44% 29.92 in - East 17.3 mph - N/A   Clear
5:30 AM 71.6 °F - 50.0 °F 46% 29.92 in - ENE 15.0 mph - N/A   Clear
6:00 AM 72 °F - 50 °F 34% 29.93 in 19 mi East 15.0 mph - -   Partly Cloudy
6:00 AM 73.4 °F - 50.0 °F 44% 29.92 in - ENE 15.0 mph - N/A   Clear
6:30 AM 73.4 °F - 50.0 °F 44% 29.92 in - ENE 17.3 mph - N/A   Clear
7:00 AM 75.2 °F - 50.0 °F 41% 29.95 in - ENE 17.3 mph - N/A   Clear
7:30 AM 77.0 °F - 51.8 °F 41% 29.95 in - ENE 17.3 mph - N/A   Clear
8:00 AM 80 °F - 51 °F 26% 29.95 in - ENE 16.1 mph - -  
8:00 AM 80.6 °F - 51.8 °F 37% 29.95 in - ENE 16.1 mph - N/A   Clear
8:30 AM 84.2 °F - 51.8 °F 33% 29.95 in - ENE 16.1 mph - N/A   Clear
9:00 AM 87 °F - 52 °F 20% 29.94 in 19 mi ENE 16.1 mph - -   Partly Cloudy
9:00 AM 86.0 °F - 51.8 °F 31% 29.92 in - ENE 16.1 mph - N/A   Clear
9:30 AM 89.6 °F - 51.8 °F 27% 29.92 in - ENE 15.0 mph - N/A   Clear
10:00 AM 93.2 °F - 51.8 °F 24% 29.92 in - ENE 10.4 mph - N/A   Clear
10:30 AM 95.0 °F - 51.8 °F 23% 29.89 in - ENE 11.5 mph - N/A   Clear
11:00 AM 97 °F - 52 °F 13% 29.91 in - NE 8.1 mph - -  
11:00 AM 96.8 °F - 51.8 °F 22% 29.89 in - NE 8.1 mph - N/A   Clear
11:30 AM 96.8 °F - 50.0 °F 20% 29.89 in - East 6.9 mph - N/A   Clear
12:00 PM 99 °F - 52 °F 13% 29.89 in 19 mi North 4.6 mph - -   Partly Cloudy
12:00 PM 98.6 °F - 51.8 °F 21% 29.89 in - North 4.6 mph - N/A   Clear
12:30 PM 98.6 °F - 50.0 °F 19% 29.86 in - South 8.1 mph - N/A   Clear
1:00 PM 100.4 °F - 50.0 °F 18% 29.86 in - SW 6.9 mph - N/A   Clear
1:30 PM 100.4 °F - 50.0 °F 18% 29.83 in - West 6.9 mph - N/A   Clear
2:00 PM 100 °F - 52 °F 12% 29.84 in - WSW 16.1 mph - -  
2:00 PM 100.4 °F - 51.8 °F 20% 29.83 in - WSW 16.1 mph - N/A   Clear
2:30 PM 100.4 °F - 51.8 °F 20% 29.83 in - SW 19.6 mph - N/A   Clear
3:00 PM 101 °F - 52 °F 12% 29.83 in 19 mi SW 19.6 mph - -   Partly Cloudy
3:00 PM 100.4 °F - 51.8 °F 20% 29.83 in - SW 19.6 mph - N/A   Clear
3:30 PM 98.6 °F - 51.8 °F 21% 29.80 in - SW 19.6 mph - N/A   Clear
4:00 PM 98.6 °F - 51.8 °F 21% 29.80 in - SW 20.7 mph - N/A   Clear
4:30 PM 98.6 °F - 50.0 °F 19% 29.80 in - SW 19.6 mph - N/A   Clear
5:00 PM 97 °F - 48 °F 11% 29.81 in - SW 20.7 mph - -  
5:00 PM 96.8 °F - 48.2 °F 19% 29.80 in - SW 20.7 mph - N/A   Clear
5:30 PM 96.8 °F - 48.2 °F 19% 29.80 in - SSW 21.9 mph - N/A   Clear
6:00 PM 93 °F - 50 °F 14% 29.83 in 19 mi SW 19.6 mph - -   Partly Cloudy
6:00 PM 93.2 °F - 50.0 °F 23% 29.83 in - SW 19.6 mph - N/A   Clear
6:30 PM 89.6 °F - 51.8 °F 27% 29.83 in - SSW 19.6 mph - N/A   Clear
7:00 PM 84.2 °F 82.8 °F 53.6 °F 35% 29.83 in - SSW 18.4 mph - N/A   Clear
7:30 PM 84.2 °F 83.0 °F 55.4 °F 37% 29.86 in - SSW 16.1 mph - N/A   Clear
8:00 PM 83 °F - 55 °F 27% 29.87 in - SSW 15.0 mph - -  
8:00 PM 82.4 °F 81.7 °F 55.4 °F 39% 29.86 in - SSW 15.0 mph - N/A   Clear
8:30 PM 82.4 °F 81.7 °F 55.4 °F 39% 29.86 in - SSW 12.7 mph - N/A   Clear
9:00 PM 81 °F - 56 °F 32% 29.88 in 19 mi SSW 10.4 mph - -   Partly Cloudy
9:00 PM 80.6 °F 80.5 °F 55.4 °F 42% 29.86 in - SSW 10.4 mph - N/A   Clear
9:30 PM 80.6 °F 80.8 °F 57.2 °F 45% 29.86 in - SSW 12.7 mph - N/A   Clear
10:00 PM 78.8 °F - 59.0 °F 51% 29.86 in - SSW 13.8 mph - N/A   Clear
10:30 PM 78.8 °F - 60.8 °F 54% 29.89 in - SSW 10.4 mph - N/A   Clear
11:00 PM 77 °F - 60 °F 46% 29.88 in - South 12.7 mph - -  
11:00 PM 77.0 °F - 60.8 °F 57% 29.86 in - South 12.7 mph - N/A   Clear
11:30 PM 77.0 °F - 60.8 °F 57% 29.86 in - South 9.2 mph - N/A   Clear